THORAD AGENA D DEB, 4171

Orbit data source: Space-Track

THORAD AGENA D DEB, 4171 is space debris in LEO originally from a launch on Tue, 30 Sep 1969 UTC launched from the Air Force Western Test Range (AFWTR). Debris objects in space refer to the collection of defunct objects orbiting the Earth. Examples of debris include non-operational satellites, rocket bodies, and fragments generated from explosions, collisions, or faulty payload assembly.

Loading next visibility...
Identifier
4171, 1969-082AP
Orbit
LEO
Country
Flag of USUS
Related business
Manufacturer
Unknown
Mission
Spacecraft
Bus & Motor
Unknown
Mass
Unknown
Launch date (UTC)
1969-09-30 (57 years ago)
Launch vehicle
Unknown
Launch site
Air Force Western Test Range (AFWTR)
Object type
Payload
Rocket body
Debris
Shape & HBR
Unknown shape, 0.1 m
Radar Cross Section
Medium (>0.1 m² and <1 m²)

Expand to show TLE details & history
Last TLE update: 2 days ago

TLE from 2 days ago
0 THORAD AGENA D DEB
1  4171U 69082AP  26171.39152177  .00000644  00000-0  23163-3 0  9992
2  4171  70.0736 166.8122 0032139 113.9971 246.4527 14.37786552939653
Epoch: 2026-06-20T09:23Z
TLE epoch observation values (Epoch: 2026-06-20T09:23:47.480Z)
Latitude
-0.00008°
Longitude
117.25752°
Altitude
777.42 km
Speed
7.461 km/s
True Right ascension
11h 07m 14s
True Declination
0° 00' 00"
Sunlit
Object was in daylight at epoch
Visualization orbit readout
Latitude
Unknown
Longitude
Unknown
Altitude
Unknown
Speed
Unknown
Apparent Right ascension
Unknown
Apparent Declination
Unknown
Sunlit
N/A
Visualization observer readout
Local Sidereal Time
03:46:38
Azimuth
Unknown
Elevation
Unknown
Doppler factor
Unknown
Orbital elements
Apogee altitude
786.771 km
Perigee altitude
740.864 km
Semi-major axis
7,141.955 km
Eccentricity
0.00321
Inclination
70.0736°
RAAN
166.8122°
Arg. of periapsis
113.9971°
True anomaly
246.11562°
Mean anomaly
246.4527°
Eccentric anomaly
246.28411°
Mean motion
3.59598 °/min
Orbital period
100.11 mins
BSTAR
0.00023163

Documentation

Showing up to 5 results
|